Weather History for Bellefontaine, OH

Change the Weather History Date:

Monday, December 31, 2012

  Actual Average (KDAY) Record (KDAY)
Temperature  
Mean Temperature 26 °F 28 °F  
Max Temperature 32 °F 35 °F 67 °F (1951)
Min Temperature 19 °F 21 °F -6 °F (1976)
Degree Days  
Heating Degree Days 40 37  
Month to date heating degree days 1048  
Since 1 July heating degree days 2159  
Cooling Degree Days 0 0  
Month to date cooling degree days 0  
Year to date cooling degree days 891  
Moisture  
Dew Point 27 °F    
Average Humidity 89    
Maximum Humidity 100    
Minimum Humidity 75    
Precipitation  
Precipitation 0.00 in 0.10 in 1.24 in (1947)
Month to date precipitation 3.12  
Year to date precipitation 41.05  
Snow  
Snow 0.00 in 0.20 in 6.00 in (1897)
Month to date snowfall 4.5  
Since 1 July snowfall 5.5  
Snow Depth -    
Sea Level Pressure  
Sea Level Pressure 30.08 in    
Wind  
Wind Speed 13 mph (SSW)    
Max Wind Speed 20 mph    
Max Gust Speed 25 mph    
Visibility 8 miles    
Events      
T = Trace of Precipitation, MM = Missing Value Source: NWS Daily Summary

Daily Weather History Graph

Daily Weather History Graph

Search for Another Location

Airport:

Trip Planner

Search our weather history database for the weather conditions in past years. The results will help you decide how hot, cold, wet, or windy it might be!

Date:

Astronomy

Dec. 31, 2012 Rise Set
Actual Time 7:58 AM EST 5:19 PM EST
Civil Twilight 7:27 AM EST 5:49 PM EST
Nautical Twilight 6:53 AM EST 6:23 PM EST
Astronomical Twilight 6:20 AM EST 6:56 PM EST
Moon 8:49 PM EST (12/31) 9:38 AM EST (12/31)
Length of Visible Light 10h 22m
Length of Day
9h 20m
Waning Gibbous, 90% of the Moon is Illuminated
Dec 31
Waning Gibbous
Jan 4
Last Quarter
Jan 11
New
Jan 18
First Quarter
Jan 26
Full

Hourly Weather History & Observations

Time (EST) Temp. Windchill Dew Point Humidity Pressure Visibility Wind Dir Wind Speed Gust Speed Precip Events Conditions
12:05 AM 19.4 °F 8.6 °F 17.6 °F 93% 30.25 in 10.0 mi SSE 9.2 mph - 0.00 in   Clear
12:25 AM 21.2 °F 10.1 °F 19.4 °F 93% 30.23 in 10.0 mi South 10.4 mph - 0.00 in   Clear
12:45 AM 21.2 °F 11.7 °F 19.4 °F 93% 30.22 in 10.0 mi SSE 8.1 mph - 0.00 in   Clear
1:05 AM 23.0 °F 11.1 °F 21.2 °F 93% 30.20 in 10.0 mi South 12.7 mph - 0.00 in   Clear
1:25 AM 24.8 °F 14.6 °F 21.2 °F 86% 30.19 in 10.0 mi South 10.4 mph - 0.00 in   Clear
1:45 AM 26.6 °F 16.2 °F 21.2 °F 80% 30.19 in 10.0 mi South 11.5 mph - 0.00 in   Clear
2:05 AM 26.6 °F 16.8 °F 21.2 °F 80% 30.19 in 10.0 mi South 10.4 mph - 0.00 in   Clear
2:25 AM 26.6 °F 15.2 °F 21.2 °F 80% 30.19 in 10.0 mi SSW 13.8 mph 19.6 mph 0.00 in   Clear
2:45 AM 26.6 °F 15.2 °F 21.2 °F 80% 30.18 in 10.0 mi SSW 13.8 mph 18.4 mph 0.00 in   Clear
3:05 AM 26.6 °F 15.7 °F 21.2 °F 80% 30.18 in 10.0 mi South 12.7 mph - 0.00 in   Clear
3:25 AM 26.6 °F 15.7 °F 21.2 °F 80% 30.18 in 10.0 mi South 12.7 mph - 0.00 in   Clear
3:45 AM 26.6 °F 15.2 °F 21.2 °F 80% 30.17 in 10.0 mi South 13.8 mph - 0.00 in   Clear
4:05 AM 26.6 °F 15.7 °F 21.2 °F 80% 30.16 in 10.0 mi South 12.7 mph 19.6 mph 0.00 in   Clear
4:25 AM 26.6 °F 15.7 °F 21.2 °F 80% 30.15 in 10.0 mi South 12.7 mph - 0.00 in   Clear
4:45 AM 26.6 °F 15.7 °F 23.0 °F 86% 30.15 in 10.0 mi South 12.7 mph - 0.00 in   Clear
5:05 AM 26.6 °F 16.2 °F 23.0 °F 86% 30.13 in 10.0 mi South 11.5 mph - 0.00 in   Clear
5:25 AM 28.4 °F 17.0 °F 23.0 °F 80% 30.14 in 10.0 mi SSW 15.0 mph 18.4 mph 0.00 in   Clear
5:45 AM 28.4 °F 16.2 °F 23.0 °F 80% 30.13 in 10.0 mi SSW 17.3 mph 21.9 mph 0.00 in   Clear
6:05 AM 28.4 °F 16.2 °F 23.0 °F 80% 30.13 in 10.0 mi SSW 17.3 mph - 0.00 in   Clear
6:25 AM 28.4 °F 16.2 °F 23.0 °F 80% 30.12 in 10.0 mi SSW 17.3 mph 24.2 mph 0.00 in   Clear
6:45 AM 28.4 °F 15.8 °F 23.0 °F 80% 30.12 in 10.0 mi SSW 18.4 mph - 0.00 in   Clear
7:05 AM 28.4 °F 16.6 °F 23.0 °F 80% 30.12 in 10.0 mi SSW 16.1 mph 23.0 mph 0.00 in   Clear
7:25 AM 30.2 °F 18.5 °F 23.0 °F 75% 30.11 in 10.0 mi SSW 17.3 mph - 0.00 in   Clear
7:45 AM 30.2 °F 18.1 °F 23.0 °F 75% 30.12 in 10.0 mi SSW 18.4 mph - 0.00 in   Clear
8:05 AM 30.2 °F 18.5 °F 23.0 °F 75% 30.10 in 10.0 mi SW 17.3 mph - 0.00 in   Clear
8:25 AM 30.2 °F 18.1 °F 24.8 °F 80% 30.10 in 10.0 mi SSW 18.4 mph 23.0 mph 0.00 in   Clear
8:45 AM 30.2 °F 18.5 °F 24.8 °F 80% 30.10 in 10.0 mi SSW 17.3 mph - 0.00 in   Clear
9:05 AM 30.2 °F 19.3 °F 24.8 °F 80% 30.10 in 10.0 mi SW 15.0 mph 23.0 mph 0.00 in   Clear
9:25 AM 30.2 °F 18.5 °F 24.8 °F 80% 30.10 in 10.0 mi SSW 17.3 mph 24.2 mph 0.00 in   Clear
9:45 AM 30.2 °F 18.5 °F 24.8 °F 80% 30.09 in 10.0 mi SSW 17.3 mph - 0.00 in   Clear
10:05 AM 30.2 °F 19.3 °F 24.8 °F 80% 30.09 in 10.0 mi SW 15.0 mph - 0.00 in   Clear
10:25 AM 32.0 °F 21.2 °F 24.8 °F 75% 30.09 in 10.0 mi SW 16.1 mph - 0.00 in   Clear
10:45 AM 32.0 °F 20.5 °F 24.8 °F 75% 30.10 in 10.0 mi SW 18.4 mph - 0.00 in   Clear
11:05 AM 32.0 °F 20.8 °F 24.8 °F 75% 30.10 in 10.0 mi SW 17.3 mph - 0.00 in   Clear
11:25 AM 32.0 °F 20.8 °F 24.8 °F 75% 30.09 in 10.0 mi SSW 17.3 mph - 0.00 in   Clear
11:45 AM 32.0 °F 21.2 °F 26.6 °F 80% 30.08 in 10.0 mi SW 16.1 mph 21.9 mph 0.00 in   Clear
12:05 PM 32.0 °F 20.8 °F 26.6 °F 80% 30.07 in 10.0 mi SSW 17.3 mph 23.0 mph 0.00 in   Clear
12:25 PM 32.0 °F 21.2 °F 26.6 °F 80% 30.06 in 10.0 mi SSW 16.1 mph 21.9 mph 0.00 in   Clear
12:45 PM 32.0 °F 22.1 °F 26.6 °F 80% 30.05 in 10.0 mi SSW 13.8 mph - 0.00 in   Clear
1:05 PM 32.0 °F 21.6 °F 26.6 °F 80% 30.03 in 10.0 mi SW 15.0 mph - 0.00 in   Clear
1:25 PM 32.0 °F 21.2 °F 26.6 °F 80% 30.02 in 10.0 mi SSW 16.1 mph 21.9 mph 0.00 in   Clear
1:45 PM 32.0 °F 20.1 °F 28.4 °F 87% 30.02 in 2.0 mi SW 19.6 mph 25.3 mph 0.00 in   Scattered Clouds
2:05 PM 32.0 °F 22.1 °F 32.0 °F 100% 30.01 in 1.0 mi SW 13.8 mph - 0.00 in   Mostly Cloudy
2:25 PM 32.0 °F 23.0 °F 32.0 °F 100% 30.02 in 0.8 mi SW 11.5 mph - 0.00 in   Mostly Cloudy
2:45 PM 32.0 °F 22.1 °F 32.0 °F 100% 30.02 in 0.8 mi WSW 13.8 mph - 0.00 in   Unknown
3:05 PM 32.0 °F 22.1 °F 32.0 °F 100% 30.03 in 0.5 mi SW 13.8 mph 24.2 mph 0.00 in   Overcast
3:25 PM 32.0 °F 22.1 °F 32.0 °F 100% 30.03 in 1.2 mi SW 13.8 mph 19.6 mph 0.00 in   Mostly Cloudy
3:45 PM 32.0 °F 21.6 °F 32.0 °F 100% 30.03 in 1.8 mi SW 15.0 mph 21.9 mph 0.00 in   Mostly Cloudy
4:05 PM 32.0 °F 22.5 °F 32.0 °F 100% 30.03 in 2.0 mi SW 12.7 mph 18.4 mph 0.00 in   Mostly Cloudy
4:25 PM 32.0 °F 21.6 °F 32.0 °F 100% 30.02 in 2.5 mi SW 15.0 mph - 0.00 in   Mostly Cloudy
4:45 PM 32.0 °F 21.2 °F 32.0 °F 100% 30.02 in 3.0 mi SSW 16.1 mph - 0.00 in   Mostly Cloudy
5:25 PM 32.0 °F 20.8 °F 32.0 °F 100% 30.02 in 2.0 mi SW 17.3 mph - 0.00 in   Overcast
5:45 PM 32.0 °F 22.5 °F 32.0 °F 100% 30.01 in 2.5 mi SSW 12.7 mph - 0.00 in   Mostly Cloudy
6:05 PM 32.0 °F 23.6 °F 32.0 °F 100% 30.01 in 4.0 mi SSW 10.4 mph - 0.00 in   Mostly Cloudy
6:25 PM 32.0 °F 22.1 °F 32.0 °F 100% 30.00 in 9.0 mi SW 13.8 mph - 0.00 in   Mostly Cloudy
6:45 PM 32.0 °F 23.0 °F 32.0 °F 100% 30.01 in 10.0 mi SW 11.5 mph - 0.00 in   Overcast
6:55 PM 32.0 °F 23.0 °F 32.0 °F 100% 30.02 in 10.0 mi SW 11.5 mph - 0.00 in   Overcast
7:25 PM 32.0 °F 22.5 °F 32.0 °F 100% 30.02 in 10.0 mi SW 12.7 mph - 0.00 in   Overcast
7:45 PM 32.0 °F 23.0 °F 32.0 °F 100% 30.02 in 10.0 mi SW 11.5 mph - 0.00 in   Overcast
8:05 PM 32.0 °F 22.1 °F 32.0 °F 100% 30.01 in 8.0 mi SW 13.8 mph - 0.00 in   Overcast
8:25 PM 32.0 °F 22.1 °F 32.0 °F 100% 30.01 in 8.0 mi SW 13.8 mph 18.4 mph 0.00 in   Overcast
8:45 PM 32.0 °F 22.5 °F 32.0 °F 100% 30.01 in 8.0 mi SW 12.7 mph - 0.00 in   Overcast
9:05 PM 32.0 °F 22.1 °F 32.0 °F 100% 30.01 in 8.0 mi SW 13.8 mph - 0.00 in   Overcast
9:25 PM 32.0 °F 23.0 °F 32.0 °F 100% 30.00 in 8.0 mi SW 11.5 mph - 0.00 in   Overcast
9:45 PM 32.0 °F 23.0 °F 32.0 °F 100% 29.99 in 8.0 mi SW 11.5 mph - 0.00 in   Overcast
10:05 PM 32.0 °F 24.2 °F 32.0 °F 100% 30.00 in 8.0 mi WSW 9.2 mph - 0.00 in   Overcast
10:25 PM 32.0 °F 24.2 °F 32.0 °F 100% 30.01 in 9.0 mi WSW 9.2 mph - 0.00 in   Overcast
10:45 PM 32.0 °F 23.6 °F 32.0 °F 100% 30.01 in 8.0 mi WSW 10.4 mph - 0.00 in   Overcast
11:05 PM 32.0 °F 24.8 °F 32.0 °F 100% 30.00 in 8.0 mi WSW 8.1 mph - 0.00 in   Overcast
11:25 PM 32.0 °F 24.2 °F 32.0 °F 100% 30.01 in 7.0 mi West 9.2 mph - 0.00 in   Overcast
11:45 PM 32.0 °F 23.6 °F 32.0 °F 100% 30.01 in 6.0 mi West 10.4 mph - 0.00 in   Overcast